Wayne, NE

9:33 PM CDT on May 27, 2018 (GMT -0500)
Wayne Municipal

Weather History for KLCG - December, 2012

Change the Weather History Date:

Sunday, December 30, 2012

  Actual Average (KOFK) Record (KOFK)
Temperature  
Mean Temperature 18 °F -  
Max Temperature 32 °F 27 °F 71 °F (1904)
Min Temperature 3 °F 7 °F -17 °F (1968)
Degree Days  
Heating Degree Days 48    
Moisture  
Dew Point 16 °F    
Average Humidity 77    
Maximum Humidity 91    
Minimum Humidity 66    
Precipitation  
Precipitation 0.00 in - - ()
Sea Level Pressure  
Sea Level Pressure 30.01 in    
Wind  
Wind Speed 8 mph (WSW)    
Max Wind Speed 17 mph    
Max Gust Speed 21 mph    
Visibility 10 miles    
Events      
Averages and records for this station are not official NWS values.
T = Trace of Precipitation, MM = Missing Value Source: NWS Daily Summary

Daily Weather History Graph

Daily Weather History Graph

Search for Another Location

Airport or City:

Astronomy

Dec. 30, 2012 Rise Set
Actual Time 7:56 AM CST 5:05 PM CST
Civil Twilight 7:24 AM CST 5:36 PM CST
Nautical Twilight 6:49 AM CST 6:12 PM CST
Astronomical Twilight 6:15 AM CST 6:46 PM CST
Moon 7:40 PM CST (12/30) 9:03 AM CST (12/30)
Length of Visible Light 10h 12m
Length of Day
9h 08m
Waning Gibbous, 95% of the Moon is Illuminated
Dec 30
Waning Gibbous
Jan 4
Last Quarter
Jan 11
New
Jan 18
First Quarter
Jan 26
Full

Hourly Weather History & Observations

Time (CST) Temp. Windchill Dew Point Humidity Pressure Visibility Wind Dir Wind Speed Gust Speed Precip Events Conditions
12:15 AM 3.6 °F -3.8 °F 0.7 °F 88% 30.16 in 10.0 mi SSW 3.5 mph - N/A   Clear
12:55 AM 8.4 °F 1.8 °F 6.3 °F 91% 30.16 in 10.0 mi SW 3.5 mph - N/A   Clear
1:15 AM 9.1 °F - 6.8 °F 90% 30.16 in 10.0 mi Calm Calm - N/A   Clear
1:35 AM 9.3 °F - 7.0 °F 90% 30.16 in 10.0 mi Calm Calm - N/A   Clear
1:55 AM 8.2 °F - 5.2 °F 87% 30.16 in 10.0 mi Calm Calm - N/A   Clear
7:35 AM 12.6 °F - 10.0 °F 90% 30.09 in 10.0 mi Calm Calm - N/A   Clear
7:55 AM 12.9 °F 5.2 °F 9.9 °F 88% 30.08 in 10.0 mi SSW 4.6 mph - N/A   Clear
8:15 AM 17.6 °F 5.7 °F 13.5 °F 84% 30.07 in 10.0 mi SSE 10.4 mph - N/A   Clear
8:35 AM 14.7 °F 7.3 °F 10.8 °F 84% 30.06 in 10.0 mi South 4.6 mph - N/A   Clear
8:55 AM 15.4 °F 8.1 °F 11.3 °F 84% 30.04 in 10.0 mi South 4.6 mph - N/A   Clear
9:15 AM 15.6 °F - 11.3 °F 83% 30.03 in 10.0 mi Calm Calm - N/A   Clear
9:35 AM 16.5 °F 9.4 °F 11.8 °F 82% 30.03 in 10.0 mi SSW 4.6 mph - N/A   Clear
9:55 AM 18.0 °F 11.1 °F 13.3 °F 82% 30.03 in 10.0 mi South 4.6 mph - N/A   Clear
10:15 AM 18.0 °F 6.9 °F 13.1 °F 81% 30.02 in 10.0 mi South 9.2 mph - N/A   Clear
10:35 AM 19.8 °F 5.4 °F 14.7 °F 81% 30.01 in 10.0 mi South 16.1 mph - N/A   Clear
10:55 AM 21.2 °F 6.8 °F 15.8 °F 80% 30.00 in 10.0 mi South 17.3 mph - N/A   Clear
11:15 AM 22.1 °F 8.5 °F 16.3 °F 79% 29.98 in 10.0 mi South 16.1 mph - N/A   Clear
11:35 AM 24.3 °F 11.2 °F 18.0 °F 77% 29.96 in 10.0 mi South 16.1 mph - N/A   Clear
11:55 AM 25.5 °F 12.9 °F 18.1 °F 74% 29.95 in 10.0 mi South 16.1 mph - N/A   Clear
12:15 PM 25.5 °F 14.3 °F 19.0 °F 76% 29.93 in 10.0 mi SSE 12.7 mph - N/A   Clear
12:35 PM 26.4 °F 15.5 °F 19.6 °F 75% 29.92 in 10.0 mi South 12.7 mph - N/A   Clear
12:55 PM 27.5 °F 16.8 °F 20.5 °F 75% 29.90 in 10.0 mi SSE 12.7 mph - N/A   Clear
1:15 PM 29.7 °F 19.6 °F 22.6 °F 75% 29.89 in 10.0 mi SSW 12.7 mph - N/A   Clear
1:35 PM 32.4 °F 23.5 °F 24.4 °F 73% 29.88 in 10.0 mi SW 11.5 mph - N/A   Clear
1:55 PM 32.7 °F 23.4 °F 23.9 °F 70% 29.88 in 10.0 mi SW 12.7 mph - N/A   Clear
2:15 PM 32.9 °F 23.2 °F 24.3 °F 71% 29.89 in 10.0 mi SW 13.8 mph - N/A   Clear
2:35 PM 32.9 °F 23.7 °F 24.6 °F 72% 29.89 in 10.0 mi SW 12.7 mph - N/A   Clear
2:55 PM 32.2 °F 22.7 °F 23.9 °F 72% 29.89 in 10.0 mi SW 12.7 mph - N/A   Clear
3:15 PM 32.0 °F 23.6 °F 23.7 °F 71% 29.90 in 10.0 mi WSW 10.4 mph - N/A   Clear
3:35 PM 32.0 °F 23.0 °F 22.8 °F 69% 29.90 in 10.0 mi WSW 11.5 mph - N/A   Clear
3:55 PM 31.6 °F 22.6 °F 22.1 °F 68% 29.91 in 10.0 mi WSW 11.5 mph - N/A   Clear
4:15 PM 31.6 °F 23.1 °F 21.9 °F 67% 29.93 in 10.0 mi West 10.4 mph - N/A   Clear
4:35 PM 30.0 °F 18.3 °F 19.9 °F 66% 29.94 in 10.0 mi WNW 17.3 mph 20.7 mph N/A   Clear
4:55 PM 28.4 °F 18.5 °F 18.5 °F 66% 29.95 in 10.0 mi WNW 11.5 mph - N/A   Clear
5:15 PM 27.5 °F 18.6 °F 18.5 °F 69% 29.96 in 10.0 mi West 9.2 mph - N/A   Clear
5:35 PM 26.6 °F 18.2 °F 18.3 °F 71% 29.96 in 10.0 mi West 8.1 mph - N/A   Clear
5:55 PM 25.5 °F 16.9 °F 17.8 °F 72% 29.98 in 10.0 mi West 8.1 mph - N/A   Clear
6:15 PM 25.7 °F 15.1 °F 17.6 °F 71% 29.98 in 10.0 mi West 11.5 mph - N/A   Clear
6:35 PM 24.1 °F 16.0 °F 16.9 °F 74% 30.00 in 10.0 mi WNW 6.9 mph - N/A   Clear
6:55 PM 23.5 °F 15.4 °F 16.5 °F 75% 30.01 in 10.0 mi WNW 6.9 mph - N/A   Clear
7:15 PM 21.4 °F 10.4 °F 15.1 °F 77% 30.03 in 10.0 mi WNW 10.4 mph - N/A   Clear
7:35 PM 21.2 °F 9.5 °F 14.9 °F 77% 30.03 in 10.0 mi NW 11.5 mph - N/A   Clear
7:55 PM 20.8 °F 10.4 °F 14.4 °F 76% 30.04 in 10.0 mi NW 9.2 mph - N/A   Clear
8:15 PM 20.1 °F 7.5 °F 14.0 °F 77% 30.04 in 10.0 mi NW 12.7 mph - N/A   Clear
8:35 PM 20.7 °F 11.9 °F 14.2 °F 76% 30.04 in 10.0 mi NW 6.9 mph - N/A   Clear
8:55 PM 21.4 °F 9.1 °F 14.9 °F 76% 30.04 in 10.0 mi NW 12.7 mph 18.4 mph N/A   Clear
9:15 PM 21.7 °F 9.6 °F 15.4 °F 77% 30.04 in 10.0 mi NW 12.7 mph - N/A   Clear
9:55 PM 21.9 °F 9.8 °F 15.8 °F 77% 30.05 in 10.0 mi NW 12.7 mph - N/A   Clear
10:15 PM 22.1 °F 11.3 °F 16.2 °F 78% 30.07 in 10.0 mi NW 10.4 mph - N/A   Clear
10:35 PM 21.9 °F 9.2 °F 16.2 °F 78% 30.08 in 10.0 mi NW 13.8 mph - N/A   Clear
10:55 PM 21.9 °F 9.8 °F 16.3 °F 79% 30.10 in 10.0 mi NNW 12.7 mph - N/A   Clear
11:15 PM 21.7 °F 8.5 °F 16.5 °F 80% 30.09 in 10.0 mi NNW 15.0 mph - N/A   Clear
11:35 PM 21.6 °F 11.3 °F 16.5 °F 81% 30.09 in 10.0 mi NNW 9.2 mph 16.1 mph N/A   Clear
11:55 PM 21.2 °F 8.9 °F 16.5 °F 82% 30.10 in 10.0 mi NNW 12.7 mph - N/A   Clear